Time,TemperatureF,DewpointF,PressureIn,WindDirection,WindDirectionDegrees,WindSpeedMPH,WindSpeedGustMPH,Humidity,HourlyPrecipIn,Conditions,Clouds,dailyrainin,SoftwareType,DateUTC
2013-08-30 00:01:00,55.4,54.0,29.78,NNE,22,0.0,2.0,97,0.00,,,0.00,Rainwise IP-100,2013-08-30 04:01:00,
2013-08-30 00:06:00,55.3,54.0,29.78,NNE,22,0.0,0.0,97,0.00,,,0.00,Rainwise IP-100,2013-08-30 04:06:00,
2013-08-30 00:11:00,55.2,54.0,29.78,NNW,337,2.0,3.0,97,0.00,,,0.00,Rainwise IP-100,2013-08-30 04:11:00,
2013-08-30 00:16:00,55.3,54.0,29.78,ESE,112,2.0,4.0,97,0.00,,,0.00,Rainwise IP-100,2013-08-30 04:16:00,
2013-08-30 00:21:00,55.2,54.0,29.78,ENE,67,0.0,2.0,97,0.00,,,0.00,Rainwise IP-100,2013-08-30 04:21:00,
2013-08-30 00:26:00,55.1,54.0,29.78,ENE,67,0.0,2.0,97,0.00,,,0.00,Rainwise IP-100,2013-08-30 04:26:00,
2013-08-30 00:31:00,55.2,54.0,29.78,NW,315,0.0,4.0,97,0.00,,,0.00,Rainwise IP-100,2013-08-30 04:31:00,
2013-08-30 00:36:00,55.3,54.0,29.78,NW,315,1.0,4.0,97,0.00,,,0.00,Rainwise IP-100,2013-08-30 04:36:00,
2013-08-30 00:41:00,55.4,54.0,29.77,NNW,337,0.0,2.0,97,0.00,,,0.00,Rainwise IP-100,2013-08-30 04:41:00,
2013-08-30 00:46:00,55.3,54.0,29.77,NNW,337,1.0,4.0,97,0.00,,,0.00,Rainwise IP-100,2013-08-30 04:46:00,
2013-08-30 00:51:00,55.3,54.0,29.77,ENE,67,0.0,4.0,97,0.00,,,0.00,Rainwise IP-100,2013-08-30 04:51:00,
2013-08-30 00:56:00,55.1,54.0,29.78,ESE,112,0.0,2.0,97,0.00,,,0.00,Rainwise IP-100,2013-08-30 04:56:00,
2013-08-30 01:01:00,55.1,54.0,29.77,NW,315,1.0,2.0,97,0.00,,,0.00,Rainwise IP-100,2013-08-30 05:01:00,
2013-08-30 01:06:00,55.1,54.0,29.77,NW,315,0.0,4.0,97,0.00,,,0.00,Rainwise IP-100,2013-08-30 05:06:00,
2013-08-30 01:11:00,55.1,54.0,29.77,NE,45,0.0,3.0,97,0.00,,,0.00,Rainwise IP-100,2013-08-30 05:11:00,
2013-08-30 01:16:00,55.1,54.0,29.77,NNE,22,2.0,3.0,97,0.00,,,0.00,Rainwise IP-100,2013-08-30 05:16:00,
2013-08-30 01:21:00,55.0,54.0,29.77,NNE,22,0.0,4.0,97,0.00,,,0.00,Rainwise IP-100,2013-08-30 05:21:00,
2013-08-30 01:26:00,54.9,54.0,29.77,North,360,1.0,2.0,97,0.00,,,0.00,Rainwise IP-100,2013-08-30 05:26:00,
2013-08-30 01:31:00,54.9,54.0,29.77,NW,315,0.0,2.0,97,0.00,,,0.00,Rainwise IP-100,2013-08-30 05:31:00,
2013-08-30 01:36:00,54.8,54.0,29.76,NNW,337,2.0,2.0,97,0.00,,,0.00,Rainwise IP-100,2013-08-30 05:36:00,
2013-08-30 01:41:00,54.7,54.0,29.76,NNE,22,0.0,2.0,97,0.00,,,0.00,Rainwise IP-100,2013-08-30 05:41:00,
2013-08-30 01:46:00,54.6,54.0,29.76,NNW,337,1.0,2.0,97,0.00,,,0.00,Rainwise IP-100,2013-08-30 05:46:00,
2013-08-30 01:51:00,54.6,54.0,29.76,ENE,67,1.0,4.0,97,0.00,,,0.00,Rainwise IP-100,2013-08-30 05:51:00,
2013-08-30 01:56:00,54.7,54.0,29.76,NNE,22,1.0,2.0,97,0.00,,,0.00,Rainwise IP-100,2013-08-30 05:56:00,
2013-08-30 02:01:00,54.7,54.0,29.75,NNW,337,1.0,2.0,97,0.00,,,0.00,Rainwise IP-100,2013-08-30 06:01:00,
2013-08-30 02:06:00,54.8,54.0,29.75,NNW,337,2.0,4.0,97,0.00,,,0.00,Rainwise IP-100,2013-08-30 06:06:00,
2013-08-30 02:11:00,54.8,54.0,29.75,North,360,3.0,3.0,97,0.00,,,0.00,Rainwise IP-100,2013-08-30 06:11:00,
2013-08-30 02:16:00,54.8,54.0,29.75,NNE,22,0.0,4.0,97,0.00,,,0.00,Rainwise IP-100,2013-08-30 06:16:00,
2013-08-30 02:21:00,54.7,54.0,29.75,NNW,337,0.0,2.0,97,0.00,,,0.00,Rainwise IP-100,2013-08-30 06:21:00,
2013-08-30 02:26:00,54.6,54.0,29.74,NNW,337,0.0,2.0,97,0.00,,,0.00,Rainwise IP-100,2013-08-30 06:26:00,
2013-08-30 02:31:00,54.6,54.0,29.74,NNW,337,0.0,1.0,97,0.00,,,0.00,Rainwise IP-100,2013-08-30 06:31:00,
2013-08-30 02:36:00,54.4,54.0,29.74,NNW,337,0.0,2.0,97,0.00,,,0.00,Rainwise IP-100,2013-08-30 06:36:00,
2013-08-30 02:41:00,54.4,54.0,29.74,North,360,1.0,2.0,97,0.00,,,0.00,Rainwise IP-100,2013-08-30 06:41:00,
2013-08-30 02:46:00,54.4,54.0,29.74,North,360,1.0,2.0,97,0.00,,,0.00,Rainwise IP-100,2013-08-30 06:46:00,
2013-08-30 02:51:00,54.4,54.0,29.73,NNE,22,0.0,4.0,97,0.00,,,0.00,Rainwise IP-100,2013-08-30 06:51:00,
2013-08-30 02:56:00,54.5,54.0,29.74,NNE,22,0.0,2.0,97,0.00,,,0.00,Rainwise IP-100,2013-08-30 06:56:00,
2013-08-30 03:01:00,54.5,54.0,29.73,NNW,337,0.0,2.0,97,0.00,,,0.00,Rainwise IP-100,2013-08-30 07:01:00,
2013-08-30 03:06:00,54.5,54.0,29.73,NNW,337,1.0,2.0,97,0.00,,,0.00,Rainwise IP-100,2013-08-30 07:06:00,
2013-08-30 03:11:00,54.4,54.0,29.73,NNW,337,1.0,3.0,97,0.00,,,0.00,Rainwise IP-100,2013-08-30 07:11:00,
2013-08-30 03:16:00,54.4,54.0,29.73,NNW,337,0.0,2.0,97,0.00,,,0.00,Rainwise IP-100,2013-08-30 07:16:00,
2013-08-30 03:21:00,54.3,53.0,29.73,NNE,22,0.0,2.0,97,0.00,,,0.00,Rainwise IP-100,2013-08-30 07:21:00,
2013-08-30 03:26:00,54.2,53.0,29.73,NNE,22,0.0,2.0,97,0.00,,,0.00,Rainwise IP-100,2013-08-30 07:26:00,
2013-08-30 03:31:00,54.3,53.0,29.73,NW,315,1.0,2.0,97,0.00,,,0.00,Rainwise IP-100,2013-08-30 07:31:00,
2013-08-30 03:36:00,54.3,53.0,29.73,NW,315,0.0,2.0,97,0.00,,,0.00,Rainwise IP-100,2013-08-30 07:36:00,
2013-08-30 03:41:00,54.2,53.0,29.72,NE,45,1.0,2.0,97,0.00,,,0.00,Rainwise IP-100,2013-08-30 07:41:00,
2013-08-30 03:46:00,54.1,53.0,29.72,NNE,22,0.0,2.0,97,0.00,,,0.00,Rainwise IP-100,2013-08-30 07:46:00,
2013-08-30 03:51:00,53.9,53.0,29.72,NNE,22,0.0,2.0,97,0.00,,,0.00,Rainwise IP-100,2013-08-30 07:51:00,
2013-08-30 03:56:00,53.9,53.0,29.72,NNE,22,0.0,0.0,97,0.00,,,0.00,Rainwise IP-100,2013-08-30 07:56:00,
2013-08-30 04:01:00,53.7,53.0,29.72,NNE,22,0.0,0.0,97,0.00,,,0.00,Rainwise IP-100,2013-08-30 08:01:00,
2013-08-30 04:06:00,53.7,53.0,29.73,NNE,22,0.0,0.0,97,0.00,,,0.00,Rainwise IP-100,2013-08-30 08:06:00,
2013-08-30 04:11:00,53.7,53.0,29.73,NNE,22,0.0,0.0,97,0.00,,,0.00,Rainwise IP-100,2013-08-30 08:11:00,
2013-08-30 04:16:00,53.6,53.0,29.73,NNE,22,0.0,0.0,97,0.00,,,0.00,Rainwise IP-100,2013-08-30 08:16:00,
2013-08-30 04:21:00,53.5,53.0,29.72,NNE,22,0.0,0.0,97,0.00,,,0.00,Rainwise IP-100,2013-08-30 08:21:00,
2013-08-30 04:26:00,53.4,53.0,29.72,NNE,22,0.0,0.0,97,0.00,,,0.00,Rainwise IP-100,2013-08-30 08:26:00,
2013-08-30 04:31:00,53.2,52.0,29.72,NNE,22,0.0,0.0,97,0.00,,,0.00,Rainwise IP-100,2013-08-30 08:31:00,
2013-08-30 04:36:00,53.0,52.0,29.72,NNE,22,0.0,0.0,97,0.00,,,0.00,Rainwise IP-100,2013-08-30 08:36:00,
2013-08-30 04:41:00,53.0,52.0,29.72,NNE,22,2.0,0.0,97,0.00,,,0.00,Rainwise IP-100,2013-08-30 08:41:00,
2013-08-30 04:46:00,52.9,52.0,29.72,NNE,22,0.0,2.0,97,0.00,,,0.00,Rainwise IP-100,2013-08-30 08:46:00,
2013-08-30 04:51:00,52.9,52.0,29.71,NNE,22,1.0,0.0,97,0.00,,,0.00,Rainwise IP-100,2013-08-30 08:51:00,
2013-08-30 04:56:00,53.0,52.0,29.71,ENE,67,1.0,2.0,97,0.00,,,0.00,Rainwise IP-100,2013-08-30 08:56:00,
2013-08-30 05:01:00,53.0,52.0,29.71,ENE,67,2.0,2.0,97,0.00,,,0.00,Rainwise IP-100,2013-08-30 09:01:00,
2013-08-30 05:06:00,52.9,52.0,29.70,ENE,67,2.0,2.0,97,0.00,,,0.00,Rainwise IP-100,2013-08-30 09:06:00,
2013-08-30 05:11:00,53.0,52.0,29.70,ENE,67,1.0,2.0,97,0.00,,,0.00,Rainwise IP-100,2013-08-30 09:11:00,
2013-08-30 05:16:00,53.0,52.0,29.70,ENE,67,0.0,2.0,97,0.00,,,0.00,Rainwise IP-100,2013-08-30 09:16:00,
2013-08-30 05:21:00,52.9,52.0,29.70,ENE,67,0.0,2.0,97,0.00,,,0.00,Rainwise IP-100,2013-08-30 09:21:00,
2013-08-30 05:26:00,52.8,52.0,29.70,ENE,67,0.0,2.0,97,0.00,,,0.00,Rainwise IP-100,2013-08-30 09:26:00,
2013-08-30 05:31:00,52.8,52.0,29.70,ENE,67,0.0,2.0,97,0.00,,,0.00,Rainwise IP-100,2013-08-30 09:31:00,
2013-08-30 05:36:00,52.8,52.0,29.70,ENE,67,1.0,2.0,97,0.00,,,0.00,Rainwise IP-100,2013-08-30 09:36:00,
2013-08-30 05:41:00,52.8,52.0,29.70,ENE,67,0.0,2.0,97,0.00,,,0.00,Rainwise IP-100,2013-08-30 09:41:00,
2013-08-30 05:46:00,52.7,52.0,29.70,ENE,67,2.0,2.0,97,0.00,,,0.00,Rainwise IP-100,2013-08-30 09:46:00,
2013-08-30 05:51:00,52.8,52.0,29.71,NE,45,1.0,4.0,97,0.00,,,0.00,Rainwise IP-100,2013-08-30 09:51:00,
2013-08-30 05:56:00,52.7,52.0,29.70,NE,45,2.0,2.0,97,0.00,,,0.00,Rainwise IP-100,2013-08-30 09:56:00,
2013-08-30 06:01:00,52.5,52.0,29.70,ENE,67,1.0,2.0,97,0.00,,,0.00,Rainwise IP-100,2013-08-30 10:01:00,
2013-08-30 06:06:00,52.2,51.0,29.70,ENE,67,2.0,2.0,97,0.00,,,0.00,Rainwise IP-100,2013-08-30 10:06:00,
2013-08-30 06:11:00,52.3,51.0,29.70,ENE,67,2.0,2.0,97,0.00,,,0.00,Rainwise IP-100,2013-08-30 10:11:00,
2013-08-30 06:16:00,52.2,51.0,29.70,ENE,67,0.0,2.0,97,0.00,,,0.00,Rainwise IP-100,2013-08-30 10:16:00,
2013-08-30 06:21:00,52.1,51.0,29.69,ENE,67,0.0,2.0,97,0.00,,,0.00,Rainwise IP-100,2013-08-30 10:21:00,
2013-08-30 06:26:00,52.0,51.0,29.69,ENE,67,0.0,2.0,97,0.00,,,0.00,Rainwise IP-100,2013-08-30 10:26:00,
2013-08-30 06:31:00,52.2,51.0,29.70,ENE,67,0.0,0.0,97,0.00,,,0.00,Rainwise IP-100,2013-08-30 10:31:00,
2013-08-30 06:36:00,52.3,51.0,29.70,ENE,67,0.0,0.0,97,0.00,,,0.00,Rainwise IP-100,2013-08-30 10:36:00,
2013-08-30 06:41:00,52.4,51.0,29.70,ENE,67,0.0,1.0,97,0.00,,,0.00,Rainwise IP-100,2013-08-30 10:41:00,
2013-08-30 06:46:00,52.6,52.0,29.70,ENE,67,0.0,0.0,97,0.00,,,0.00,Rainwise IP-100,2013-08-30 10:46:00,
2013-08-30 06:51:00,52.7,52.0,29.70,ENE,67,0.0,0.0,97,0.00,,,0.00,Rainwise IP-100,2013-08-30 10:51:00,
2013-08-30 06:56:00,53.1,52.0,29.70,ENE,67,0.0,2.0,97,0.00,,,0.00,Rainwise IP-100,2013-08-30 10:56:00,
2013-08-30 07:01:00,53.1,52.0,29.70,WNW,292,2.0,2.0,97,0.00,,,0.00,Rainwise IP-100,2013-08-30 11:01:00,
2013-08-30 07:06:00,53.4,53.0,29.70,NNE,22,0.0,2.0,97,0.00,,,0.00,Rainwise IP-100,2013-08-30 11:06:00,
2013-08-30 07:11:00,53.4,53.0,29.70,NE,45,0.0,3.0,97,0.00,,,0.00,Rainwise IP-100,2013-08-30 11:11:00,
2013-08-30 07:16:00,53.6,53.0,29.70,North,360,2.0,3.0,97,0.00,,,0.00,Rainwise IP-100,2013-08-30 11:16:00,
2013-08-30 07:21:00,53.7,53.0,29.70,NW,315,2.0,4.0,97,0.00,,,0.00,Rainwise IP-100,2013-08-30 11:21:00,
2013-08-30 07:26:00,53.8,53.0,29.70,West,270,0.0,2.0,97,0.00,,,0.00,Rainwise IP-100,2013-08-30 11:26:00,
2013-08-30 07:31:00,53.9,53.0,29.70,NNE,22,0.0,3.0,97,0.00,,,0.00,Rainwise IP-100,2013-08-30 11:31:00,
2013-08-30 07:36:00,54.1,53.0,29.70,North,360,0.0,2.0,97,0.00,,,0.00,Rainwise IP-100,2013-08-30 11:36:00,
2013-08-30 07:41:00,54.3,53.0,29.70,NW,315,2.0,2.0,97,0.00,,,0.00,Rainwise IP-100,2013-08-30 11:41:00,
2013-08-30 07:46:00,54.7,54.0,29.70,NW,315,2.0,2.0,97,0.00,,,0.00,Rainwise IP-100,2013-08-30 11:46:00,
2013-08-30 07:50:00,54.9,54.0,29.70,NW,315,0.0,2.0,97,0.00,,,0.00,Rainwise IP-100,2013-08-30 11:50:00,
2013-08-30 07:55:00,54.9,54.0,29.70,NNW,337,1.0,2.0,97,0.00,,,0.00,Rainwise IP-100,2013-08-30 11:55:00,
2013-08-30 08:00:00,55.3,54.0,29.70,WSW,247,2.0,2.0,97,0.00,,,0.00,Rainwise IP-100,2013-08-30 12:00:00,
2013-08-30 08:05:00,55.8,55.0,29.70,NNE,22,3.0,3.0,97,0.00,,,0.00,Rainwise IP-100,2013-08-30 12:05:00,
2013-08-30 08:10:00,56.8,56.0,29.71,NNW,337,2.0,4.0,97,0.00,,,0.00,Rainwise IP-100,2013-08-30 12:10:00,
2013-08-30 08:15:00,57.7,57.0,29.71,WNW,292,1.0,4.0,97,0.00,,,0.00,Rainwise IP-100,2013-08-30 12:15:00,
2013-08-30 08:20:00,58.3,57.0,29.71,NNE,22,3.0,4.0,97,0.00,,,0.00,Rainwise IP-100,2013-08-30 12:20:00,
2013-08-30 08:25:00,58.9,57.0,29.72,WNW,292,1.0,3.0,93,0.00,,,0.00,Rainwise IP-100,2013-08-30 12:25:00,
2013-08-30 08:30:00,59.4,57.0,29.72,WNW,292,3.0,3.0,94,0.00,,,0.00,Rainwise IP-100,2013-08-30 12:30:00,
2013-08-30 08:35:00,59.5,56.0,29.72,WNW,292,3.0,3.0,91,0.00,,,0.00,Rainwise IP-100,2013-08-30 12:35:00,
2013-08-30 08:40:00,59.7,56.0,29.73,West,270,2.0,3.0,89,0.00,,,0.00,Rainwise IP-100,2013-08-30 12:40:00,
2013-08-30 08:45:00,59.9,56.0,29.73,WSW,247,2.0,3.0,88,0.00,,,0.00,Rainwise IP-100,2013-08-30 12:45:00,
2013-08-30 08:50:00,60.1,56.0,29.74,West,270,1.0,3.0,88,0.00,,,0.00,Rainwise IP-100,2013-08-30 12:50:00,
2013-08-30 08:55:00,60.3,56.0,29.74,West,270,2.0,3.0,88,0.00,,,0.00,Rainwise IP-100,2013-08-30 12:55:00,
2013-08-30 09:00:00,60.5,56.0,29.74,WSW,247,2.0,4.0,86,0.00,,,0.00,Rainwise IP-100,2013-08-30 13:00:00,
2013-08-30 09:05:00,60.7,56.0,29.74,WSW,247,1.0,5.0,84,0.00,,,0.00,Rainwise IP-100,2013-08-30 13:05:00,
2013-08-30 09:10:00,61.3,56.0,29.74,SW,225,1.0,4.0,83,0.00,,,0.00,Rainwise IP-100,2013-08-30 13:10:00,
2013-08-30 09:15:00,61.9,56.0,29.74,NNW,337,6.0,6.0,80,0.00,,,0.00,Rainwise IP-100,2013-08-30 13:15:00,
2013-08-30 09:20:00,62.4,56.0,29.74,WNW,292,2.0,6.0,79,0.00,,,0.00,Rainwise IP-100,2013-08-30 13:20:00,
2013-08-30 09:25:00,62.5,55.0,29.74,South,180,1.0,5.0,77,0.00,,,0.00,Rainwise IP-100,2013-08-30 13:25:00,
2013-08-30 09:30:00,62.9,56.0,29.74,SW,225,2.0,6.0,77,0.00,,,0.00,Rainwise IP-100,2013-08-30 13:30:00,
2013-08-30 09:35:00,63.8,55.0,29.74,WNW,292,2.0,4.0,75,0.00,,,0.00,Rainwise IP-100,2013-08-30 13:35:00,
2013-08-30 09:40:00,64.0,56.0,29.74,West,270,3.0,5.0,75,0.00,,,0.00,Rainwise IP-100,2013-08-30 13:40:00,
2013-08-30 09:45:00,64.2,55.0,29.74,SE,135,1.0,4.0,74,0.00,,,0.00,Rainwise IP-100,2013-08-30 13:45:00,
2013-08-30 09:50:00,63.9,55.0,29.74,SW,225,4.0,5.0,74,0.00,,,0.00,Rainwise IP-100,2013-08-30 13:50:00,
2013-08-30 09:55:00,63.7,55.0,29.74,WNW,292,2.0,5.0,75,0.00,,,0.00,Rainwise IP-100,2013-08-30 13:55:00,
2013-08-30 10:00:00,63.9,56.0,29.74,WSW,247,3.0,4.0,75,0.00,,,0.00,Rainwise IP-100,2013-08-30 14:00:00,
2013-08-30 10:05:00,64.3,55.0,29.74,NNW,337,0.0,4.0,74,0.00,,,0.00,Rainwise IP-100,2013-08-30 14:05:00,
2013-08-30 10:10:00,64.5,56.0,29.73,WSW,247,2.0,4.0,74,0.00,,,0.00,Rainwise IP-100,2013-08-30 14:10:00,
2013-08-30 10:15:00,64.5,56.0,29.73,WSW,247,3.0,4.0,75,0.00,,,0.00,Rainwise IP-100,2013-08-30 14:15:00,
2013-08-30 10:20:00,65.1,56.0,29.74,West,270,2.0,4.0,73,0.00,,,0.00,Rainwise IP-100,2013-08-30 14:20:00,
2013-08-30 10:25:00,65.9,56.0,29.73,South,180,1.0,3.0,72,0.00,,,0.00,Rainwise IP-100,2013-08-30 14:25:00,
2013-08-30 10:30:00,65.9,56.0,29.73,WSW,247,2.0,4.0,72,0.00,,,0.00,Rainwise IP-100,2013-08-30 14:30:00,
2013-08-30 10:35:00,66.2,57.0,29.73,WNW,292,1.0,3.0,72,0.00,,,0.00,Rainwise IP-100,2013-08-30 14:35:00,
2013-08-30 10:40:00,66.7,57.0,29.74,NNE,22,2.0,2.0,71,0.00,,,0.00,Rainwise IP-100,2013-08-30 14:40:00,
2013-08-30 10:45:00,67.2,57.0,29.72,SW,225,1.0,4.0,70,0.00,,,0.00,Rainwise IP-100,2013-08-30 14:45:00,
2013-08-30 10:50:00,67.4,57.0,29.72,WNW,292,0.0,4.0,70,0.00,,,0.00,Rainwise IP-100,2013-08-30 14:50:00,
2013-08-30 10:55:00,67.6,57.0,29.72,WSW,247,2.0,3.0,69,0.00,,,0.00,Rainwise IP-100,2013-08-30 14:55:00,
2013-08-30 11:00:00,67.5,57.0,29.72,West,270,2.0,4.0,70,0.00,,,0.00,Rainwise IP-100,2013-08-30 15:00:00,
2013-08-30 11:05:00,67.7,56.0,29.72,SW,225,2.0,3.0,68,0.00,,,0.00,Rainwise IP-100,2013-08-30 15:05:00,
2013-08-30 11:10:00,67.9,57.0,29.71,SW,225,1.0,3.0,69,0.00,,,0.00,Rainwise IP-100,2013-08-30 15:10:00,
2013-08-30 11:15:00,68.7,57.0,29.71,WNW,292,1.0,3.0,68,0.00,,,0.00,Rainwise IP-100,2013-08-30 15:15:00,
2013-08-30 11:20:00,68.4,57.0,29.71,SW,225,2.0,4.0,68,0.00,,,0.00,Rainwise IP-100,2013-08-30 15:20:00,
2013-08-30 11:25:00,68.6,57.0,29.71,SSW,202,1.0,3.0,68,0.00,,,0.00,Rainwise IP-100,2013-08-30 15:25:00,
2013-08-30 11:30:00,68.7,57.0,29.71,SE,135,1.0,2.0,67,0.00,,,0.00,Rainwise IP-100,2013-08-30 15:30:00,
2013-08-30 11:35:00,68.7,57.0,29.71,West,270,1.0,3.0,68,0.00,,,0.00,Rainwise IP-100,2013-08-30 15:35:00,
2013-08-30 11:40:00,68.2,57.0,29.70,WSW,247,1.0,2.0,69,0.00,,,0.00,Rainwise IP-100,2013-08-30 15:40:00,
2013-08-30 11:45:00,67.9,57.0,29.70,West,270,3.0,3.0,70,0.00,,,0.00,Rainwise IP-100,2013-08-30 15:45:00,
2013-08-30 11:50:00,67.7,58.0,29.70,WSW,247,3.0,4.0,72,0.00,,,0.00,Rainwise IP-100,2013-08-30 15:50:00,
2013-08-30 11:55:00,67.9,59.0,29.70,WSW,247,1.0,4.0,72,0.00,,,0.00,Rainwise IP-100,2013-08-30 15:55:00,
2013-08-30 12:00:00,68.1,57.0,29.70,SSW,202,1.0,4.0,70,0.00,,,0.00,Rainwise IP-100,2013-08-30 16:00:00,
2013-08-30 12:05:00,68.5,57.0,29.70,SSW,202,3.0,4.0,68,0.00,,,0.00,Rainwise IP-100,2013-08-30 16:05:00,
2013-08-30 12:10:00,68.5,58.0,29.70,WSW,247,2.0,6.0,70,0.00,,,0.00,Rainwise IP-100,2013-08-30 16:10:00,
2013-08-30 12:15:00,68.7,57.0,29.69,West,270,4.0,4.0,68,0.00,,,0.00,Rainwise IP-100,2013-08-30 16:15:00,
2013-08-30 12:20:00,68.9,58.0,29.69,South,180,1.0,6.0,69,0.00,,,0.00,Rainwise IP-100,2013-08-30 16:20:00,
2013-08-30 12:25:00,69.4,57.0,29.69,WSW,247,2.0,6.0,67,0.00,,,0.00,Rainwise IP-100,2013-08-30 16:25:00,
2013-08-30 12:30:00,69.0,57.0,29.70,South,180,3.0,7.0,67,0.00,,,0.00,Rainwise IP-100,2013-08-30 16:30:00,
2013-08-30 12:35:00,69.3,57.0,29.69,SSW,202,6.0,6.0,66,0.00,,,0.00,Rainwise IP-100,2013-08-30 16:35:00,
2013-08-30 12:40:00,69.7,57.0,29.69,SSW,202,3.0,8.0,65,0.00,,,0.00,Rainwise IP-100,2013-08-30 16:40:00,
2013-08-30 12:45:00,69.4,57.0,29.69,SW,225,4.0,6.0,65,0.00,,,0.00,Rainwise IP-100,2013-08-30 16:45:00,
2013-08-30 12:50:00,69.3,57.0,29.69,SSE,157,4.0,9.0,67,0.00,,,0.00,Rainwise IP-100,2013-08-30 16:50:00,
2013-08-30 12:55:00,68.8,57.0,29.69,SW,225,1.0,9.0,69,0.00,,,0.00,Rainwise IP-100,2013-08-30 16:55:00,
2013-08-30 13:00:00,68.6,57.0,29.69,SW,225,2.0,7.0,69,0.00,,,0.00,Rainwise IP-100,2013-08-30 17:00:00,
2013-08-30 13:05:00,68.7,56.0,29.69,SW,225,4.0,7.0,65,0.00,,,0.00,Rainwise IP-100,2013-08-30 17:05:00,
2013-08-30 13:10:00,67.9,57.0,29.69,SW,225,4.0,11.0,69,0.00,,,0.00,Rainwise IP-100,2013-08-30 17:10:00,
2013-08-30 13:15:00,67.1,57.0,29.68,ESE,112,4.0,8.0,70,0.00,,,0.00,Rainwise IP-100,2013-08-30 17:15:00,
2013-08-30 13:20:00,67.3,57.0,29.69,SSE,157,5.0,8.0,70,0.00,,,0.00,Rainwise IP-100,2013-08-30 17:20:00,
2013-08-30 13:25:00,67.6,57.0,29.68,SW,225,5.0,11.0,69,0.00,,,0.00,Rainwise IP-100,2013-08-30 17:25:00,
2013-08-30 13:30:00,67.9,57.0,29.68,SSW,202,1.0,9.0,70,0.00,,,0.00,Rainwise IP-100,2013-08-30 17:30:00,
2013-08-30 13:35:00,68.4,57.0,29.68,SSW,202,4.0,8.0,67,0.00,,,0.00,Rainwise IP-100,2013-08-30 17:35:00,
2013-08-30 13:40:00,68.6,57.0,29.67,South,180,6.0,7.0,67,0.00,,,0.00,Rainwise IP-100,2013-08-30 17:40:00,
2013-08-30 13:45:00,68.7,57.0,29.67,WSW,247,1.0,7.0,68,0.00,,,0.00,Rainwise IP-100,2013-08-30 17:45:00,
2013-08-30 13:50:00,68.4,57.0,29.67,SW,225,2.0,9.0,67,0.00,,,0.00,Rainwise IP-100,2013-08-30 17:50:00,
2013-08-30 13:55:00,68.4,57.0,29.66,SSW,202,2.0,8.0,68,0.00,,,0.00,Rainwise IP-100,2013-08-30 17:55:00,
2013-08-30 14:00:00,68.4,56.0,29.66,South,180,2.0,9.0,66,0.00,,,0.00,Rainwise IP-100,2013-08-30 18:00:00,
2013-08-30 14:05:00,67.6,56.0,29.66,SSW,202,6.0,11.0,66,0.00,,,0.00,Rainwise IP-100,2013-08-30 18:05:00,
2013-08-30 14:10:00,67.6,57.0,29.66,South,180,5.0,9.0,69,0.00,,,0.00,Rainwise IP-100,2013-08-30 18:10:00,
2013-08-30 14:15:00,67.4,57.0,29.66,SW,225,4.0,9.0,69,0.00,,,0.00,Rainwise IP-100,2013-08-30 18:15:00,
2013-08-30 14:20:00,67.3,57.0,29.66,WNW,292,2.0,9.0,70,0.00,,,0.00,Rainwise IP-100,2013-08-30 18:20:00,
2013-08-30 14:25:00,67.1,57.0,29.66,SW,225,3.0,11.0,72,0.00,,,0.00,Rainwise IP-100,2013-08-30 18:25:00,
2013-08-30 14:30:00,67.2,57.0,29.65,WSW,247,2.0,9.0,71,0.00,,,0.00,Rainwise IP-100,2013-08-30 18:30:00,
2013-08-30 14:35:00,67.7,58.0,29.64,WSW,247,3.0,6.0,72,0.00,,,0.00,Rainwise IP-100,2013-08-30 18:35:00,
2013-08-30 14:40:00,68.6,57.0,29.64,SW,225,4.0,9.0,69,0.00,,,0.00,Rainwise IP-100,2013-08-30 18:40:00,
2013-08-30 14:45:00,69.7,59.0,29.64,South,180,2.0,7.0,68,0.00,,,0.00,Rainwise IP-100,2013-08-30 18:45:00,
2013-08-30 14:50:00,69.9,59.0,29.65,SSE,157,1.0,7.0,68,0.00,,,0.00,Rainwise IP-100,2013-08-30 18:50:00,
2013-08-30 14:55:00,70.1,59.0,29.65,ENE,67,1.0,12.0,68,0.00,,,0.00,Rainwise IP-100,2013-08-30 18:55:00,
2013-08-30 15:00:00,69.5,59.0,29.65,WSW,247,1.0,12.0,70,0.00,,,0.00,Rainwise IP-100,2013-08-30 19:00:00,
2013-08-30 15:05:00,69.8,59.0,29.66,East,90,5.0,6.0,70,0.00,,,0.00,Rainwise IP-100,2013-08-30 19:05:00,
2013-08-30 15:10:00,70.4,60.0,29.64,ESE,112,2.0,9.0,70,0.00,,,0.00,Rainwise IP-100,2013-08-30 19:10:00,
2013-08-30 15:15:00,70.9,60.0,29.65,SW,225,4.0,8.0,69,0.00,,,0.00,Rainwise IP-100,2013-08-30 19:15:00,
2013-08-30 15:20:00,70.2,60.0,29.65,East,90,2.0,11.0,70,0.00,,,0.00,Rainwise IP-100,2013-08-30 19:20:00,
2013-08-30 15:25:00,70.2,60.0,29.64,SSW,202,3.0,7.0,71,0.00,,,0.00,Rainwise IP-100,2013-08-30 19:25:00,
2013-08-30 15:30:00,70.3,60.0,29.64,SW,225,2.0,7.0,70,0.00,,,0.00,Rainwise IP-100,2013-08-30 19:30:00,
2013-08-30 15:35:00,69.1,60.0,29.64,SSW,202,2.0,11.0,73,0.00,,,0.00,Rainwise IP-100,2013-08-30 19:35:00,
2013-08-30 15:40:00,68.7,60.0,29.64,SSW,202,1.0,6.0,75,0.00,,,0.00,Rainwise IP-100,2013-08-30 19:40:00,
2013-08-30 15:45:00,68.6,60.0,29.64,SSW,202,9.0,9.0,75,0.00,,,0.00,Rainwise IP-100,2013-08-30 19:45:00,
2013-08-30 15:50:00,68.6,60.0,29.64,WSW,247,4.0,10.0,76,0.00,,,0.00,Rainwise IP-100,2013-08-30 19:50:00,
2013-08-30 15:55:00,68.9,60.0,29.64,SE,135,0.0,9.0,75,0.00,,,0.00,Rainwise IP-100,2013-08-30 19:55:00,
2013-08-30 16:00:00,69.2,61.0,29.64,SW,225,4.0,8.0,75,0.00,,,0.00,Rainwise IP-100,2013-08-30 20:00:00,
2013-08-30 16:05:00,69.5,61.0,29.64,WSW,247,4.0,6.0,74,0.00,,,0.00,Rainwise IP-100,2013-08-30 20:05:00,
2013-08-30 16:10:00,69.3,61.0,29.64,WSW,247,2.0,7.0,75,0.00,,,0.00,Rainwise IP-100,2013-08-30 20:10:00,
2013-08-30 16:15:00,68.9,60.0,29.64,SSW,202,7.0,8.0,75,0.00,,,0.00,Rainwise IP-100,2013-08-30 20:15:00,
2013-08-30 16:20:00,69.1,60.0,29.64,SE,135,2.0,9.0,75,0.00,,,0.00,Rainwise IP-100,2013-08-30 20:20:00,
2013-08-30 16:25:00,69.3,60.0,29.64,SW,225,5.0,9.0,74,0.00,,,0.00,Rainwise IP-100,2013-08-30 20:25:00,
2013-08-30 16:30:00,69.1,61.0,29.65,SSW,202,1.0,8.0,76,0.00,,,0.00,Rainwise IP-100,2013-08-30 20:30:00,
2013-08-30 16:35:00,69.2,61.0,29.65,South,180,2.0,9.0,75,0.00,,,0.00,Rainwise IP-100,2013-08-30 20:35:00,
2013-08-30 16:40:00,69.3,61.0,29.64,South,180,5.0,7.0,75,0.00,,,0.00,Rainwise IP-100,2013-08-30 20:40:00,
2013-08-30 16:45:00,68.8,61.0,29.64,SW,225,6.0,9.0,77,0.00,,,0.00,Rainwise IP-100,2013-08-30 20:45:00,
2013-08-30 16:50:00,68.9,61.0,29.64,South,180,2.0,6.0,78,0.00,,,0.00,Rainwise IP-100,2013-08-30 20:50:00,
2013-08-30 16:55:00,68.9,61.0,29.64,SSW,202,4.0,9.0,77,0.00,,,0.00,Rainwise IP-100,2013-08-30 20:55:00,
2013-08-30 17:00:00,68.6,61.0,29.64,West,270,1.0,7.0,79,0.00,,,0.00,Rainwise IP-100,2013-08-30 21:00:00,
2013-08-30 17:05:00,68.6,61.0,29.64,WSW,247,4.0,9.0,79,0.00,,,0.00,Rainwise IP-100,2013-08-30 21:05:00,
2013-08-30 17:10:00,68.5,61.0,29.64,South,180,5.0,9.0,79,0.00,,,0.00,Rainwise IP-100,2013-08-30 21:10:00,
2013-08-30 17:15:00,68.3,62.0,29.64,SE,135,2.0,8.0,81,0.00,,,0.00,Rainwise IP-100,2013-08-30 21:15:00,
2013-08-30 17:20:00,67.8,62.0,29.64,West,270,5.0,11.0,82,0.00,,,0.00,Rainwise IP-100,2013-08-30 21:20:00,
2013-08-30 17:25:00,67.7,62.0,29.64,WSW,247,4.0,9.0,83,0.00,,,0.00,Rainwise IP-100,2013-08-30 21:25:00,
2013-08-30 17:30:00,67.8,62.0,29.64,ESE,112,2.0,11.0,82,0.00,,,0.00,Rainwise IP-100,2013-08-30 21:30:00,
2013-08-30 17:35:00,67.8,62.0,29.62,SSE,157,1.0,7.0,83,0.00,,,0.00,Rainwise IP-100,2013-08-30 21:35:00,
2013-08-30 17:40:00,67.4,62.0,29.63,SSE,157,3.0,7.0,84,0.00,,,0.00,Rainwise IP-100,2013-08-30 21:40:00,
2013-08-30 17:45:00,67.3,62.0,29.63,WSW,247,2.0,7.0,83,0.00,,,0.00,Rainwise IP-100,2013-08-30 21:45:00,
2013-08-30 17:50:00,67.0,62.0,29.63,SSW,202,2.0,11.0,85,0.00,,,0.00,Rainwise IP-100,2013-08-30 21:50:00,
2013-08-30 17:55:00,66.7,62.0,29.62,SSE,157,4.0,4.0,86,0.00,,,0.00,Rainwise IP-100,2013-08-30 21:55:00,
2013-08-30 18:00:00,66.4,62.0,29.62,SSE,157,4.0,6.0,87,0.00,,,0.00,Rainwise IP-100,2013-08-30 22:00:00,
2013-08-30 18:05:00,66.0,62.0,29.62,South,180,2.0,6.0,88,0.00,,,0.00,Rainwise IP-100,2013-08-30 22:05:00,
2013-08-30 18:10:00,65.6,61.0,29.62,SSE,157,4.0,7.0,88,0.00,,,0.00,Rainwise IP-100,2013-08-30 22:10:00,
2013-08-30 18:15:00,65.3,61.0,29.62,SE,135,7.0,7.0,89,0.00,,,0.00,Rainwise IP-100,2013-08-30 22:15:00,
2013-08-30 18:20:00,65.1,62.0,29.61,SSE,157,4.0,7.0,90,0.00,,,0.00,Rainwise IP-100,2013-08-30 22:20:00,
2013-08-30 18:25:00,64.7,62.0,29.61,SSE,157,3.0,9.0,91,0.00,,,0.00,Rainwise IP-100,2013-08-30 22:25:00,
2013-08-30 18:30:00,64.5,62.0,29.61,SE,135,2.0,7.0,92,0.00,,,0.00,Rainwise IP-100,2013-08-30 22:30:00,
2013-08-30 18:35:00,64.3,61.0,29.61,South,180,3.0,7.0,92,0.00,,,0.00,Rainwise IP-100,2013-08-30 22:35:00,
2013-08-30 18:40:00,64.2,62.0,29.61,SSE,157,1.0,7.0,93,0.00,,,0.00,Rainwise IP-100,2013-08-30 22:40:00,
2013-08-30 18:45:00,63.9,62.0,29.61,SSE,157,4.0,7.0,94,0.00,,,0.00,Rainwise IP-100,2013-08-30 22:45:00,
2013-08-30 18:50:00,63.9,62.0,29.62,SSE,157,2.0,7.0,94,0.00,,,0.00,Rainwise IP-100,2013-08-30 22:50:00,
2013-08-30 18:55:00,63.6,62.0,29.61,SE,135,5.0,6.0,95,0.00,,,0.00,Rainwise IP-100,2013-08-30 22:55:00,
2013-08-30 19:00:00,63.4,62.0,29.61,SE,135,2.0,7.0,95,0.00,,,0.00,Rainwise IP-100,2013-08-30 23:00:00,
2013-08-30 19:05:00,63.3,62.0,29.61,SSE,157,4.0,7.0,96,0.00,,,0.00,Rainwise IP-100,2013-08-30 23:05:00,
2013-08-30 19:10:00,63.1,62.0,29.60,SE,135,2.0,7.0,97,0.00,,,0.00,Rainwise IP-100,2013-08-30 23:10:00,
2013-08-30 19:15:00,62.9,62.0,29.61,SSE,157,2.0,7.0,97,0.00,,,0.00,Rainwise IP-100,2013-08-30 23:15:00,
2013-08-30 19:20:00,62.9,62.0,29.60,SE,135,3.0,9.0,98,0.00,,,0.00,Rainwise IP-100,2013-08-30 23:20:00,
2013-08-30 19:25:00,62.7,62.0,29.60,ESE,112,4.0,7.0,98,0.00,,,0.00,Rainwise IP-100,2013-08-30 23:25:00,
2013-08-30 19:30:00,62.7,62.0,29.60,SE,135,4.0,8.0,98,0.00,,,0.00,Rainwise IP-100,2013-08-30 23:30:00,
2013-08-30 19:35:00,62.6,62.0,29.60,ESE,112,2.0,7.0,98,0.00,,,0.00,Rainwise IP-100,2013-08-30 23:35:00,
2013-08-30 19:40:00,62.5,62.0,29.60,SE,135,1.0,6.0,98,0.00,,,0.00,Rainwise IP-100,2013-08-30 23:40:00,
2013-08-30 19:45:00,62.4,62.0,29.60,SE,135,0.0,7.0,98,0.00,,,0.00,Rainwise IP-100,2013-08-30 23:45:00,
2013-08-30 19:50:00,62.3,61.0,29.60,ESE,112,2.0,6.0,98,0.00,,,0.00,Rainwise IP-100,2013-08-30 23:50:00,
2013-08-30 19:55:00,62.3,61.0,29.60,South,180,1.0,6.0,98,0.00,,,0.00,Rainwise IP-100,2013-08-30 23:55:00,
2013-08-30 20:00:00,62.2,61.0,29.60,SE,135,1.0,4.0,98,0.00,,,0.00,Rainwise IP-100,2013-08-31 00:00:00,
2013-08-30 20:05:00,62.2,61.0,29.60,SE,135,4.0,7.0,98,0.00,,,0.00,Rainwise IP-100,2013-08-31 00:05:00,
2013-08-30 20:10:00,62.1,61.0,29.60,ESE,112,2.0,6.0,98,0.00,,,0.00,Rainwise IP-100,2013-08-31 00:10:00,
2013-08-30 20:15:00,62.1,61.0,29.60,ESE,112,1.0,6.0,98,0.00,,,0.00,Rainwise IP-100,2013-08-31 00:15:00,
2013-08-30 20:20:00,62.1,61.0,29.60,South,180,1.0,6.0,98,0.00,,,0.00,Rainwise IP-100,2013-08-31 00:20:00,
2013-08-30 20:25:00,62.1,61.0,29.61,ESE,112,1.0,6.0,98,0.00,,,0.00,Rainwise IP-100,2013-08-31 00:25:00,
2013-08-30 20:30:00,62.0,61.0,29.61,SE,135,2.0,4.0,98,0.00,,,0.00,Rainwise IP-100,2013-08-31 00:30:00,
2013-08-30 20:35:00,61.9,61.0,29.61,SSE,157,6.0,6.0,98,0.00,,,0.00,Rainwise IP-100,2013-08-31 00:35:00,
2013-08-30 20:40:00,62.1,61.0,29.61,ESE,112,3.0,6.0,98,0.00,,,0.00,Rainwise IP-100,2013-08-31 00:40:00,
2013-08-30 20:45:00,62.1,61.0,29.61,SE,135,3.0,5.0,98,0.00,,,0.00,Rainwise IP-100,2013-08-31 00:45:00,
2013-08-30 20:50:00,62.1,61.0,29.60,ESE,112,2.0,7.0,98,0.00,,,0.00,Rainwise IP-100,2013-08-31 00:50:00,
2013-08-30 20:55:00,62.2,61.0,29.60,South,180,2.0,4.0,98,0.00,,,0.00,Rainwise IP-100,2013-08-31 00:55:00,
2013-08-30 21:00:00,62.3,61.0,29.61,SSE,157,4.0,6.0,98,0.00,,,0.00,Rainwise IP-100,2013-08-31 01:00:00,
2013-08-30 21:05:00,62.4,62.0,29.61,ESE,112,1.0,6.0,98,0.00,,,0.00,Rainwise IP-100,2013-08-31 01:05:00,
2013-08-30 21:10:00,62.5,62.0,29.61,SE,135,3.0,6.0,98,0.00,,,0.00,Rainwise IP-100,2013-08-31 01:10:00,
2013-08-30 21:15:00,62.7,62.0,29.60,ENE,67,1.0,6.0,98,0.00,,,0.00,Rainwise IP-100,2013-08-31 01:15:00,
2013-08-30 21:20:00,62.8,62.0,29.60,SE,135,1.0,5.0,98,0.00,,,0.00,Rainwise IP-100,2013-08-31 01:20:00,
2013-08-30 21:25:00,62.9,62.0,29.60,SE,135,1.0,4.0,98,0.00,,,0.00,Rainwise IP-100,2013-08-31 01:25:00,
2013-08-30 21:30:00,63.1,62.0,29.60,SSW,202,3.0,4.0,98,0.00,,,0.00,Rainwise IP-100,2013-08-31 01:30:00,
2013-08-30 21:35:00,63.3,62.0,29.60,SSE,157,3.0,5.0,98,0.00,,,0.00,Rainwise IP-100,2013-08-31 01:35:00,
2013-08-30 21:40:00,63.3,62.0,29.60,South,180,2.0,6.0,98,0.00,,,0.00,Rainwise IP-100,2013-08-31 01:40:00,
2013-08-30 21:45:00,63.4,63.0,29.61,SSE,157,3.0,4.0,98,0.00,,,0.00,Rainwise IP-100,2013-08-31 01:45:00,
2013-08-30 21:50:00,63.4,63.0,29.61,South,180,4.0,4.0,98,0.00,,,0.00,Rainwise IP-100,2013-08-31 01:50:00,
2013-08-30 21:55:00,63.6,63.0,29.60,SE,135,1.0,4.0,98,0.00,,,0.00,Rainwise IP-100,2013-08-31 01:55:00,
2013-08-30 22:00:00,63.7,63.0,29.60,SSE,157,1.0,4.0,98,0.00,,,0.00,Rainwise IP-100,2013-08-31 02:00:00,
2013-08-30 22:05:00,63.7,63.0,29.60,SSE,157,2.0,3.0,98,0.00,,,0.00,Rainwise IP-100,2013-08-31 02:05:00,
2013-08-30 22:10:00,63.9,63.0,29.60,SSW,202,0.0,4.0,98,0.00,,,0.00,Rainwise IP-100,2013-08-31 02:10:00,
2013-08-30 22:15:00,64.1,63.0,29.60,SSE,157,2.0,4.0,98,0.00,,,0.00,Rainwise IP-100,2013-08-31 02:15:00,
2013-08-30 22:20:00,64.2,63.0,29.60,South,180,0.0,4.0,98,0.00,,,0.00,Rainwise IP-100,2013-08-31 02:20:00,
2013-08-30 22:25:00,64.4,64.0,29.60,ENE,67,1.0,2.0,98,0.00,,,0.00,Rainwise IP-100,2013-08-31 02:25:00,
2013-08-30 22:30:00,64.5,64.0,29.60,ENE,67,1.0,2.0,98,0.00,,,0.00,Rainwise IP-100,2013-08-31 02:30:00,
2013-08-30 22:35:00,64.7,64.0,29.60,South,180,0.0,2.0,98,0.00,,,0.00,Rainwise IP-100,2013-08-31 02:35:00,
2013-08-30 22:40:00,64.7,63.0,29.60,SSE,157,0.0,2.0,97,0.00,,,0.00,Rainwise IP-100,2013-08-31 02:40:00,
2013-08-30 22:45:00,64.4,64.0,29.60,SSE,157,2.0,5.0,98,0.00,,,0.00,Rainwise IP-100,2013-08-31 02:45:00,
2013-08-30 22:50:00,64.3,63.0,29.60,SE,135,1.0,4.0,98,0.00,,,0.00,Rainwise IP-100,2013-08-31 02:50:00,
2013-08-30 22:55:00,64.5,64.0,29.60,ESE,112,2.0,4.0,98,0.00,,,0.00,Rainwise IP-100,2013-08-31 02:55:00,
2013-08-30 23:00:00,64.3,63.0,29.60,SE,135,2.0,3.0,98,0.00,,,0.00,Rainwise IP-100,2013-08-31 03:00:00,
2013-08-30 23:05:00,64.4,64.0,29.60,SSW,202,2.0,5.0,98,0.12,,,0.04,Rainwise IP-100,2013-08-31 03:05:00,
2013-08-30 23:10:00,64.4,64.0,29.60,SW,225,3.0,10.0,98,1.20,,,0.21,Rainwise IP-100,2013-08-31 03:10:00,
2013-08-30 23:15:00,64.5,64.0,29.59,SSW,202,2.0,6.0,98,1.20,,,0.22,Rainwise IP-100,2013-08-31 03:15:00,
2013-08-30 23:20:00,64.4,64.0,29.59,ESE,112,1.0,5.0,98,0.12,,,0.22,Rainwise IP-100,2013-08-31 03:20:00,
2013-08-30 23:25:00,64.5,64.0,29.59,SSW,202,2.0,7.0,98,0.00,,,0.22,Rainwise IP-100,2013-08-31 03:25:00,
2013-08-30 23:30:00,64.8,64.0,29.59,SW,225,0.0,4.0,98,0.00,,,0.22,Rainwise IP-100,2013-08-31 03:30:00,
2013-08-30 23:35:00,64.9,64.0,29.59,SSE,157,1.0,3.0,98,0.00,,,0.22,Rainwise IP-100,2013-08-31 03:35:00,
2013-08-30 23:40:00,64.9,64.0,29.59,SSE,157,0.0,4.0,98,0.00,,,0.22,Rainwise IP-100,2013-08-31 03:40:00,
2013-08-30 23:45:00,64.9,64.0,29.59,SSE,157,2.0,2.0,98,0.00,,,0.22,Rainwise IP-100,2013-08-31 03:45:00,
2013-08-30 23:50:00,64.9,64.0,29.59,South,180,1.0,3.0,98,0.00,,,0.22,Rainwise IP-100,2013-08-31 03:50:00,
2013-08-30 23:55:00,64.7,64.0,29.59,SSW,202,2.0,4.0,98,0.00,,,0.22,Rainwise IP-100,2013-08-31 03:55:00,